Time,TemperatureF,DewpointF,PressureIn,WindDirection,WindDirectionDegrees,WindSpeedMPH,WindSpeedGustMPH,Humidity,HourlyPrecipIn,Conditions,Clouds,dailyrainin,SoftwareType,DateUTC
2013-02-19 00:00:00,23.1,1.0,30.20,SW,226,0.0,3.0,39,0.00,,,0.00,weatherlink.com 1.10,2013-02-19 05:00:00,
2013-02-19 00:16:00,22.8,2.0,30.21,SW,218,1.0,2.0,41,0.00,,,0.00,weatherlink.com 1.10,2013-02-19 05:16:00,
2013-02-19 00:31:00,22.6,3.0,30.20,ESE,108,1.0,2.0,42,0.00,,,0.00,weatherlink.com 1.10,2013-02-19 05:31:00,
2013-02-19 00:46:00,22.5,3.0,30.20,ENE,58,0.0,1.0,43,0.00,,,0.00,weatherlink.com 1.10,2013-02-19 05:46:00,
2013-02-19 01:01:00,22.2,4.0,30.21,SW,221,1.0,1.0,45,0.00,,,0.00,weatherlink.com 1.10,2013-02-19 06:01:00,
2013-02-19 01:16:00,22.8,4.0,30.20,South,181,0.0,1.0,44,0.00,,,0.00,weatherlink.com 1.10,2013-02-19 06:16:00,
2013-02-19 01:31:00,23.5,4.0,30.20,WSW,257,0.0,2.0,43,0.00,,,0.00,weatherlink.com 1.10,2013-02-19 06:31:00,
2013-02-19 01:46:00,23.3,4.0,30.20,SSW,197,0.0,1.0,44,0.00,,,0.00,weatherlink.com 1.10,2013-02-19 06:46:00,
2013-02-19 02:01:00,23.7,5.0,30.20,NW,309,1.0,4.0,44,0.00,,,0.00,weatherlink.com 1.10,2013-02-19 07:01:00,
2013-02-19 02:16:00,23.7,5.0,30.20,WNW,298,0.0,2.0,44,0.00,,,0.00,weatherlink.com 1.10,2013-02-19 07:16:00,
2013-02-19 02:31:00,23.2,5.0,30.19,NNW,338,1.0,1.0,46,0.00,,,0.00,weatherlink.com 1.10,2013-02-19 07:31:00,
2013-02-19 02:46:00,23.0,5.0,30.18,WSW,250,0.0,1.0,46,0.00,,,0.00,weatherlink.com 1.10,2013-02-19 07:46:00,
2013-02-19 03:01:00,22.7,6.0,30.18,WSW,246,1.0,1.0,48,0.00,,,0.00,weatherlink.com 1.10,2013-02-19 08:01:00,
2013-02-19 03:16:00,23.2,6.0,30.17,NE,34,1.0,2.0,48,0.00,,,0.00,weatherlink.com 1.10,2013-02-19 08:16:00,
2013-02-19 03:31:00,23.0,6.0,30.16,NE,34,0.0,2.0,49,0.00,,,0.00,weatherlink.com 1.10,2013-02-19 08:31:00,
2013-02-19 03:46:00,21.3,8.0,30.16,NE,34,0.0,0.0,56,0.00,,,0.00,weatherlink.com 1.10,2013-02-19 08:46:00,
2013-02-19 04:01:00,20.4,10.0,30.16,ESE,105,0.0,1.0,65,0.00,,,0.00,weatherlink.com 1.10,2013-02-19 09:01:00,
2013-02-19 04:16:00,21.1,9.0,30.16,East,94,0.0,2.0,59,0.00,,,0.00,weatherlink.com 1.10,2013-02-19 09:16:00,
2013-02-19 04:31:00,21.5,9.0,30.17,ESE,104,0.0,1.0,58,0.00,,,0.00,weatherlink.com 1.10,2013-02-19 09:31:00,
2013-02-19 04:46:00,21.5,9.0,30.17,ESE,105,0.0,1.0,58,0.00,,,0.00,weatherlink.com 1.10,2013-02-19 09:46:00,
2013-02-19 05:01:00,22.1,8.0,30.17,East,101,1.0,2.0,56,0.00,,,0.00,weatherlink.com 1.10,2013-02-19 10:01:00,
2013-02-19 05:16:00,21.9,9.0,30.17,East,101,0.0,1.0,58,0.00,,,0.00,weatherlink.com 1.10,2013-02-19 10:16:00,
2013-02-19 05:31:00,21.9,9.0,30.16,East,97,1.0,1.0,58,0.00,,,0.00,weatherlink.com 1.10,2013-02-19 10:31:00,
2013-02-19 05:46:00,21.4,9.0,30.16,East,85,0.0,1.0,59,0.00,,,0.00,weatherlink.com 1.10,2013-02-19 10:46:00,
2013-02-19 06:01:00,21.0,10.0,30.16,East,85,0.0,1.0,62,0.00,,,0.00,weatherlink.com 1.10,2013-02-19 11:01:00,
2013-02-19 06:16:00,20.1,11.0,30.15,East,85,1.0,1.0,67,0.00,,,0.00,weatherlink.com 1.10,2013-02-19 11:16:00,
2013-02-19 06:31:00,19.8,10.0,30.15,SE,141,0.0,2.0,67,0.00,,,0.00,weatherlink.com 1.10,2013-02-19 11:31:00,
2013-02-19 06:46:00,19.3,10.0,30.14,SE,141,1.0,1.0,67,0.00,,,0.00,weatherlink.com 1.10,2013-02-19 11:46:00,
2013-02-19 07:01:00,19.9,11.0,30.14,ESE,107,0.0,1.0,69,0.00,,,0.00,weatherlink.com 1.10,2013-02-19 12:01:00,
2013-02-19 07:16:00,21.4,12.0,30.14,SSE,156,0.0,1.0,67,0.00,,,0.00,weatherlink.com 1.10,2013-02-19 12:16:00,
2013-02-19 07:31:00,22.7,11.0,30.13,SE,139,0.0,2.0,62,0.00,,,0.00,weatherlink.com 1.10,2013-02-19 12:31:00,
2013-02-19 07:46:00,24.0,12.0,30.12,SSE,153,1.0,3.0,60,0.00,,,0.00,weatherlink.com 1.10,2013-02-19 12:46:00,
2013-02-19 08:01:00,25.9,14.0,30.12,SE,140,0.0,3.0,60,0.00,,,0.00,weatherlink.com 1.10,2013-02-19 13:01:00,
2013-02-19 08:17:00,28.4,15.0,30.12,East,97,3.0,3.0,57,0.00,,,0.00,weatherlink.com 1.10,2013-02-19 13:17:00,
2013-02-19 08:34:00,29.9,16.0,30.12,ESE,108,1.0,4.0,56,0.00,,,0.00,weatherlink.com 1.10,2013-02-19 13:34:00,
2013-02-19 08:47:00,32.2,18.0,30.12,SE,135,1.0,1.0,55,0.00,,,0.00,weatherlink.com 1.10,2013-02-19 13:47:00,
2013-02-19 09:02:00,33.6,19.0,30.11,SSE,160,3.0,4.0,55,0.00,,,0.00,weatherlink.com 1.10,2013-02-19 14:02:00,
2013-02-19 09:17:00,34.5,20.0,30.11,SSE,160,2.0,4.0,56,0.00,,,0.00,weatherlink.com 1.10,2013-02-19 14:17:00,
2013-02-19 09:32:00,36.2,22.0,30.10,SSE,160,6.0,6.0,56,0.00,,,0.00,weatherlink.com 1.10,2013-02-19 14:32:00,
2013-02-19 09:47:00,37.9,24.0,30.09,SSE,158,2.0,8.0,58,0.00,,,0.00,weatherlink.com 1.10,2013-02-19 14:47:00,
2013-02-19 10:02:00,39.0,25.0,30.09,South,180,5.0,11.0,58,0.00,,,0.00,weatherlink.com 1.10,2013-02-19 15:02:00,
2013-02-19 10:17:00,40.5,26.0,30.08,SSE,149,5.0,10.0,57,0.00,,,0.00,weatherlink.com 1.10,2013-02-19 15:17:00,
2013-02-19 10:32:00,41.4,27.0,30.07,ESE,113,4.0,11.0,56,0.00,,,0.00,weatherlink.com 1.10,2013-02-19 15:32:00,
2013-02-19 10:47:00,42.6,27.0,30.07,SE,127,3.0,8.0,54,0.00,,,0.00,weatherlink.com 1.10,2013-02-19 15:47:00,
2013-02-19 11:02:00,43.1,27.0,30.06,SW,217,5.0,9.0,54,0.00,,,0.00,weatherlink.com 1.10,2013-02-19 16:02:00,
2013-02-19 11:17:00,44.1,28.0,30.06,ESE,102,3.0,12.0,54,0.00,,,0.00,weatherlink.com 1.10,2013-02-19 16:17:00,
2013-02-19 11:32:00,45.2,29.0,30.05,SSE,155,5.0,16.0,53,0.00,,,0.00,weatherlink.com 1.10,2013-02-19 16:32:00,
2013-02-19 11:47:00,46.0,30.0,30.03,SE,136,5.0,14.0,53,0.00,,,0.00,weatherlink.com 1.10,2013-02-19 16:47:00,
2013-02-19 12:02:00,46.6,30.0,30.03,SE,138,7.0,13.0,53,0.00,,,0.00,weatherlink.com 1.10,2013-02-19 17:02:00,
2013-02-19 12:17:00,46.6,30.0,30.01,SSW,195,2.0,14.0,53,0.00,,,0.00,weatherlink.com 1.10,2013-02-19 17:17:00,
2013-02-19 12:32:00,46.9,30.0,30.00,ESE,105,5.0,14.0,52,0.00,,,0.00,weatherlink.com 1.10,2013-02-19 17:32:00,
2013-02-19 12:47:00,47.5,30.0,29.98,SE,141,2.0,17.0,50,0.00,,,0.00,weatherlink.com 1.10,2013-02-19 17:47:00,
2013-02-19 13:03:00,47.6,29.0,29.98,SW,222,3.0,12.0,48,0.00,,,0.00,weatherlink.com 1.10,2013-02-19 18:03:00,
2013-02-19 13:17:00,47.4,28.0,29.97,SW,227,6.0,19.0,47,0.00,,,0.00,weatherlink.com 1.10,2013-02-19 18:17:00,
2013-02-19 13:32:00,47.2,28.0,29.97,SSW,197,4.0,16.0,48,0.00,,,0.00,weatherlink.com 1.10,2013-02-19 18:32:00,
2013-02-19 13:48:00,46.9,29.0,29.96,SSW,212,8.0,17.0,51,0.00,,,0.00,weatherlink.com 1.10,2013-02-19 18:48:00,
2013-02-19 14:02:00,46.8,30.0,29.95,SE,143,4.0,22.0,52,0.00,,,0.00,weatherlink.com 1.10,2013-02-19 19:02:00,
2013-02-19 14:18:00,46.6,31.0,29.94,SSE,152,9.0,18.0,54,0.00,,,0.00,weatherlink.com 1.10,2013-02-19 19:18:00,
2013-02-19 14:32:00,46.5,32.0,29.92,WSW,250,3.0,20.0,57,0.00,,,0.00,weatherlink.com 1.10,2013-02-19 19:32:00,
2013-02-19 14:47:00,46.6,33.0,29.92,SSE,153,13.0,20.0,59,0.00,,,0.00,weatherlink.com 1.10,2013-02-19 19:47:00,
2013-02-19 15:03:00,46.6,34.0,29.91,SW,231,7.0,19.0,61,0.00,,,0.00,weatherlink.com 1.10,2013-02-19 20:03:00,
2013-02-19 15:17:00,46.8,34.0,29.89,ESE,122,8.0,14.0,62,0.00,,,0.00,weatherlink.com 1.10,2013-02-19 20:17:00,
2013-02-19 15:32:00,46.8,34.0,29.89,SE,145,6.0,15.0,62,0.00,,,0.00,weatherlink.com 1.10,2013-02-19 20:32:00,
2013-02-19 15:47:00,46.6,36.0,29.88,SE,136,6.0,15.0,66,0.00,,,0.00,weatherlink.com 1.10,2013-02-19 20:47:00,
2013-02-19 16:03:00,44.7,37.0,29.88,ESE,115,7.0,13.0,74,0.00,,,0.00,weatherlink.com 1.10,2013-02-19 21:03:00,
2013-02-19 16:18:00,42.8,37.0,29.87,SE,141,4.0,9.0,81,0.01,,,0.01,weatherlink.com 1.10,2013-02-19 21:18:00,
2013-02-19 16:33:00,42.3,38.0,29.86,SSW,204,3.0,6.0,85,0.01,,,0.01,weatherlink.com 1.10,2013-02-19 21:33:00,
2013-02-19 16:48:00,42.2,39.0,29.85,ESE,110,3.0,7.0,87,0.01,,,0.01,weatherlink.com 1.10,2013-02-19 21:48:00,
2013-02-19 17:03:00,41.9,39.0,29.83,SE,124,3.0,6.0,89,0.02,,,0.02,weatherlink.com 1.10,2013-02-19 22:03:00,
2013-02-19 17:18:00,41.6,39.0,29.82,SE,129,2.0,5.0,90,0.01,,,0.02,weatherlink.com 1.10,2013-02-19 22:18:00,
2013-02-19 17:33:00,41.4,39.0,29.81,East,88,6.0,6.0,91,0.02,,,0.03,weatherlink.com 1.10,2013-02-19 22:33:00,
2013-02-19 17:48:00,41.2,39.0,29.80,SSE,148,2.0,8.0,92,0.02,,,0.03,weatherlink.com 1.10,2013-02-19 22:48:00,
2013-02-19 18:03:00,41.2,39.0,29.80,ESE,120,2.0,6.0,93,0.02,,,0.04,weatherlink.com 1.10,2013-02-19 23:03:00,
2013-02-19 18:18:00,40.8,39.0,29.79,East,98,6.0,6.0,93,0.04,,,0.06,weatherlink.com 1.10,2013-02-19 23:18:00,
2013-02-19 18:33:00,40.7,39.0,29.77,SE,141,0.0,5.0,94,0.05,,,0.08,weatherlink.com 1.10,2013-02-19 23:33:00,
2013-02-19 18:48:00,41.2,40.0,29.76,ESE,121,2.0,6.0,94,0.07,,,0.10,weatherlink.com 1.10,2013-02-19 23:48:00,
2013-02-19 19:03:00,41.8,41.0,29.75,ESE,108,2.0,7.0,95,0.09,,,0.13,weatherlink.com 1.10,2013-02-20 00:03:00,
2013-02-19 19:18:00,42.2,41.0,29.74,ESE,121,4.0,7.0,95,0.10,,,0.16,weatherlink.com 1.10,2013-02-20 00:18:00,
2013-02-19 19:33:00,43.0,42.0,29.72,SSE,158,5.0,11.0,95,0.11,,,0.19,weatherlink.com 1.10,2013-02-20 00:33:00,
2013-02-19 19:48:00,43.1,42.0,29.70,SE,139,5.0,12.0,95,0.11,,,0.21,weatherlink.com 1.10,2013-02-20 00:48:00,
2013-02-19 20:03:00,43.2,42.0,29.69,SSE,163,3.0,9.0,95,0.10,,,0.23,weatherlink.com 1.10,2013-02-20 01:03:00,
2013-02-19 20:33:00,43.0,42.0,29.66,East,98,1.0,5.0,95,0.06,,,0.25,weatherlink.com 1.10,2013-02-20 01:33:00,
2013-02-19 20:49:00,43.0,42.0,29.65,SE,146,3.0,5.0,95,0.04,,,0.26,weatherlink.com 1.10,2013-02-20 01:49:00,
2013-02-19 21:04:00,42.8,42.0,29.66,SW,232,2.0,4.0,96,0.04,,,0.27,weatherlink.com 1.10,2013-02-20 02:04:00,
2013-02-19 21:18:00,43.1,42.0,29.66,SSE,158,2.0,5.0,96,0.06,,,0.30,weatherlink.com 1.10,2013-02-20 02:18:00,
2013-02-19 21:34:00,43.4,42.0,29.65,SW,222,5.0,5.0,96,0.07,,,0.32,weatherlink.com 1.10,2013-02-20 02:34:00,
2013-02-19 21:48:00,43.6,43.0,29.64,WSW,249,1.0,4.0,96,0.07,,,0.33,weatherlink.com 1.10,2013-02-20 02:48:00,
2013-02-19 22:03:00,43.5,42.0,29.64,SW,233,1.0,4.0,95,0.05,,,0.33,weatherlink.com 1.10,2013-02-20 03:03:00,
2013-02-19 22:18:00,43.2,42.0,29.63,WSW,238,0.0,2.0,95,0.04,,,0.34,weatherlink.com 1.10,2013-02-20 03:18:00,
2013-02-19 22:33:00,43.1,42.0,29.62,West,281,2.0,3.0,95,0.02,,,0.34,weatherlink.com 1.10,2013-02-20 03:33:00,
2013-02-19 22:48:00,42.8,41.0,29.62,SW,219,0.0,3.0,94,0.01,,,0.34,weatherlink.com 1.10,2013-02-20 03:48:00,
2013-02-19 23:04:00,42.3,41.0,29.62,SE,124,0.0,5.0,94,0.01,,,0.34,weatherlink.com 1.10,2013-02-20 04:04:00,
2013-02-19 23:19:00,42.1,40.0,29.62,WSW,252,2.0,10.0,93,0.00,,,0.34,weatherlink.com 1.10,2013-02-20 04:19:00,
2013-02-19 23:34:00,41.9,40.0,29.61,SW,224,2.0,6.0,92,0.00,,,0.34,weatherlink.com 1.10,2013-02-20 04:34:00,
2013-02-19 23:49:00,41.8,39.0,29.61,West,277,2.0,10.0,91,0.00,,,0.34,weatherlink.com 1.10,2013-02-20 04:49:00,